Regional Weather Roundup
Issued by NWS

Home | Current Version | Previous Version | Text Only | Print | Product List | Glossary On
Versions: 1 2 3 4 5 6 7 8 9 10 11 12 13 14 15 16 17 18 19 20 21 22 23 24 25 26 27 28 29 30 31 32 33 34 35 36 37 38 39 40 41 42 43 44 45 46 47 48 49 50
000
ASUS42 KTBW 041316
RWRFL
FLORIDA REGIONAL WEATHER ROUNDUP
NATIONAL WEATHER SERVICE TAMPA BAY RUSKIN FL
900 AM EDT SAT JUL 04 2015

NOTE: "FAIR" INDICATES FEW OR NO CLOUDS BELOW 12,000 FEET WITH NO
SIGNIFICANT WEATHER AND/OR OBSTRUCTIONS TO VISIBILITY.


FLZ001>010-012>015-112-114-115-041400-
PANHANDLE FLORIDA

CITY           SKY/WX    TMP DP  RH WIND       PRES   REMARKS
PENSACOLA      PTSUNNY   82  76  81 W6        30.08R
PENSACOLA NAS  PTSUNNY   83  75  77 SW5       30.08R
MILTON NAS     CLOUDY    81  76  84 W6        30.09R
CRESTVIEW      PTSUNNY   81  77  88 SW5       30.10R
DUKE FIELD     FAIR      81  75  82 SW5       30.09R
VALPARAISO     PTSUNNY   84  75  74 SW8       30.09R
MARY ESTHER    PTSUNNY   85  74  69 W8        30.07R
TRI COUNTY     FAIR      80  77  90 VRB3      30.10R
PANAMA CITY    FAIR      84  77  79 SW13      30.08R
TYNDALL AFB    MOSUNNY   83  77  81 SW9       30.09R
APALACHICOLA   SUNNY     87  76  69 SW8       30.09R HX  97

STATION/POSITION SKY/WX   TEMP    WIND        PRES    WAVE   SWELL
                          AIR SEA DIR/SP/G            HT/PER HT/PER
                          (F)     (DEG/KT/KT) (MB)    (FT/S) (FT/S)
30.1N   87.6W              84 83  240/ 14/ 16 1017.7R   2/ 4
29.2N   88.2W              84 84  210/ 12/ 14 1018.6R   2/ 4
28.8N   86.0W              84 84  210/  8/  8 1019.2R   2/ 5   2/ 5
PANAMA CITY BEAC           82 83  220/ 10/ 11 1018.2R
CAPE SAN BLAS    NOT AVBL
TOWER C                    83     210/  6/  7 1019.3R
28.5N   84.5W              85 85  200/  4/  6 1019.3R   1/ 8   2/ 8

$$
FLZ011-016>038-118-127-128-134-139-239-041400-
NORTH FLORIDA

CITY           SKY/WX    TMP DP  RH WIND       PRES   REMARKS
MARIANNA       MOSUNNY   79  78  97 S3        30.09R
TALLAHASSEE    PTSUNNY   80  76  87 CALM      30.10R
PERRY            N/A     81  81 100 CALM      30.11S
CROSS CITY       N/A     81  74  79 S3        30.11R
LAKE CITY      FAIR      79  73  83 CALM      30.12S
GAINESVILLE    SUNNY     79  71  76 S5        30.12S
MAYPORT NAS    SUNNY     82  71  69 SW6       30.12R
JACKSONVILLE   PTSUNNY   75  70  84 W5        30.11R
JAX CRAIG      SUNNY     82  70  66 SW7       30.12R
JAX CECIL      SUNNY     77  72  83 S5        30.12S
FERNANDINA BEA FAIR      82  73  74 CALM      30.11R
ST AUGUSTINE   SUNNY     80  69  69 SW7       30.14R

STATION/POSITION SKY/WX   TEMP    WIND        PRES    WAVE   SWELL
                          AIR SEA DIR/SP/G            HT/PER HT/PER
                          (F)     (DEG/KT/KT) (MB)    (FT/S) (FT/S)
SHELL POINT                81     230/  6/  7   N/A
KEATON BEACH               83     250/  6/  7 1019.8R
CEDAR KEY                  85     210/  6/  8 1020.1R
FERNANDINA                 78 81  230/  6/  8 1018.9R
30.7N   81.3W                 77                N/A     2/ 8
MAYPORT                    78 81  250/  4/  6 1019.8R
31.4N   80.9W              79 78  240/ 10/ 12 1019.3R   3/ 8   3/ 8
ST AUGUSTINE               81 72  240/  7/  8 1021.1R

$$
FLZ040-043>046-052-053-057-058-063-144-041400-
INTERIOR CENTRAL FLORIDA

CITY           SKY/WX    TMP DP  RH WIND       PRES   REMARKS
OCALA          SUNNY     77  70  78 S6        30.14R
THE VILLAGES     N/A    N/A N/A N/A CALM      30.04R
LEESBURG       SUNNY     79  70  74 S6        30.15R
SANFORD        PTSUNNY   78  72  81 CALM      30.14R
ORLANDO EXEC   PTSUNNY   79  72  79 CALM      30.14R
ORLANDO INTL   PTSUNNY   79  70  74 CALM      30.14R
KISSIMMEE      MOSUNNY   77  73  88 CALM      30.14S
WINTER HAVEN   MOSUNNY   80  74  81 SE3       30.15R
LAKELAND       MOSUNNY   79  73  83 S3        30.14R
OKEECHOBEE     SUNNY     81  73  78 CALM      30.14R

$$
FLZ041-047-054-059-064-141-147-041400-
EAST CENTRAL FLORIDA

CITY           SKY/WX    TMP DP  RH WIND       PRES   REMARKS
ORMOND BEACH   SUNNY     77  70  78 SW3       30.13R
DAYTONA BEACH  PTSUNNY   79  70  74 SW3       30.14R
DELAND           N/A     77  70  78 CALM      30.15R
NEW SMYRNA BEA SUNNY     79  68  69 SW5       30.14R
JFK SPACE CTR  SUNNY     80  70  69 VRB2      30.13
CAPE CANAVERAL SUNNY     82  73  74 VRB2      30.13R
PATRICK AFB    SUNNY     80  73  78 NE5       30.13R
MELBOURNE      SUNNY     82  75  79 CALM      30.13R
VERO BEACH     SUNNY     83  73  72 CALM      30.14R
FT PIERCE      SUNNY     83  75  77 CALM      30.13S
STUART         MOSUNNY   82  75  78 CALM      30.15R

STATION/POSITION SKY/WX   TEMP    WIND        PRES    WAVE   SWELL
                          AIR SEA DIR/SP/G            HT/PER HT/PER
                          (F)     (DEG/KT/KT) (MB)    (FT/S) (FT/S)
28.5N   80.2W              79 81  340/  4/  4 1020.6R
28.9N   78.5W              83 84  180/  8/  8 1020.7R
TRIDENT PIER               80 77  350/  3/  3 1020.8R
28.4N   80.5W                 78                N/A     2/ 9
27.5N   80.2W                 79                N/A     2/ 9

$$
FLZ050-056-061-142-242-148-248-149-249-151-251-155-255-
160-260-041400-
WEST CENTRAL FLORIDA

CITY           SKY/WX    TMP DP  RH WIND       PRES   REMARKS
CRYSTAL RIVER  FAIR      81  72  74 CALM      30.13R
INVERNESS        N/A    N/A N/A N/A MISG        N/A
BROOKSVILLE    SUNNY     80  71  74 S7        30.14R
ZEPHYRHILLS    FAIR      75  73  94 CALM      30.14R
CLEARWATER     SUNNY     83  74  74 SE7       30.12R
TAMPA INTL     MOSUNNY   82  70  66 SE5       30.13R
TAMPA EXEC     SUNNY    N/A N/A N/A CALM      30.14R
PLANT CITY     SUNNY     81  75  83 SE6       30.15R
MACDILL AFB    SUNNY     82  76  82 SE8       30.12R
PETER O KNIGHT SUNNY     82  73  74 S7        30.13R
ST PETERSBURG  SUNNY     81  72  74 S7        30.11R
SARASOTA       SUNNY     80  71  74 E8        30.10S
VENICE         FAIR      81  73  78 E7        30.12S

STATION/POSITION SKY/WX   TEMP    WIND        PRES    WAVE   SWELL
                          AIR SEA DIR/SP/G            HT/PER HT/PER
                          (F)     (DEG/KT/KT) (MB)    (FT/S) (FT/S)
CEDAR KEY                  85     210/  6/  8 1020.1R
28.5N   84.5W              85 85  200/  4/  6 1019.3R   1/ 8   2/ 8
27.3N   84.2W                 86                N/A     2/ 4
CLEARWATER BEACH           80 87  120/  6/  8 1019.5S
MIDDLE TAMPA BAY                  150/ 10/ 11 1019.8R
VENICE                     77 88   80/  7/  9 1019.3R

$$
FLZ066-069-070-075>078-162-262-165-265-041400-
SOUTHWEST FLORIDA AND KEYS

CITY           SKY/WX    TMP DP  RH WIND       PRES   REMARKS
PUNTA GORDA    MOSUNNY   78  75  90 E6        30.14R
FT MYERS       SUNNY     79  75  87 E7        30.11R
SOUTHWEST INTL SUNNY     78  74  87 NE6       30.12R
NAPLES         SUNNY     80  73  79 E7        30.11R
MARATHON       MOSUNNY   87  78  74 SE6       30.09R HX 100
KEY WEST NAS   PTSUNNY   86  75  69 SE10      30.09R HX  95
KEY WEST INTL  PTSUNNY   86  77  74 E9        30.09R HX  97

STATION/POSITION SKY/WX   TEMP    WIND        PRES    WAVE   SWELL
                          AIR SEA DIR/SP/G            HT/PER HT/PER
                          (F)     (DEG/KT/KT) (MB)    (FT/S) (FT/S)
VENICE                     77 88   80/  7/  9 1019.3R
NAPLES                        86              1020.2R
26.0N   85.6W              84 85  130/  6/  8 1018.2R   2/ 5   2/ 5
DRY TORTUGAS               85     140/ 11/ 14 1018.2R
NW FL BAY                  85     140/ 10/ 11 1018.8
SAND KEY                   84     130/ 11/ 13 1018.6R
SOMBRERO KEY               85     120/ 12/ 13 1019.6R
LONG KEY                   85 86  120/ 10/ 12 1019.7R
MOLASSES REEF              84 85  130/ 12/ 13 1019.2R

$$
FLZ067-068-071>074-168-172>174-041400-
SOUTHEAST FLORIDA

CITY           SKY/WX    TMP DP  RH WIND       PRES   REMARKS
W PALM BEACH   PTSUNNY   79  74  84 S8        30.13R THUNDER
FT LAUDER-EXEC MOSUNNY   81  77  88 CALM      30.11R
FT LAUDERDALE  MOSUNNY   84  75  74 SE9       30.11R
POMPANO BEACH  PTSUNNY   81  74  79 E12       30.12R
PEMBROKE PINES SUNNY     86  75  69 SE7       30.12R HX  95
OPA LOCKA      SUNNY     86  74  67 SE9       30.11S
MIAMI          MOSUNNY   85  74  69 SE10      30.11R
WEST KENDALL   MOSUNNY   84  75  74 SE8       30.11R
HOMESTEAD      SUNNY     87  74  65 E8        30.11R

STATION/POSITION SKY/WX   TEMP    WIND        PRES    WAVE   SWELL
                          AIR SEA DIR/SP/G            HT/PER HT/PER
                          (F)     (DEG/KT/KT) (MB)    (FT/S) (FT/S)
PORT EVERGLADES            84     140/  8/ 11 1019.4R
VIRGINIA KEY               84 87  130/  9/ 11 1019.0R
LAKE WORTH                 83 85  120/ 10/ 11 1019.3R
SETTLEMENT POINT           83     110/ 11/ 13 1020.9R

$$




USA.gov is the U.S. government's official web portal to all federal, state and local government web resources and services.